| time (UTC) | temp F | wind direction | speed MPH | gust MPH | rain 1hr in | rain 24hr in | rain mn in | humidity % | barometer mb |
| 20260905215204 | 54 | 290 | 1.0 | 7.0 | 0.00 | 0.12 | 0.12 | 83 | 1022.2 |
| 20260905213204 | 57 | 283 | 2.0 | 7.0 | 0.00 | 0.12 | 0.12 | 77 | 1021.9 |
| 20260905212704 | 57 | 286 | 2.0 | 6.0 | 0.00 | 0.12 | 0.12 | 76 | 1021.9 |
| 20260905212204 | 57 | 294 | 2.0 | 7.0 | 0.00 | 0.12 | 0.12 | 76 | 1021.8 |
| 20260905211704 | 57 | 288 | 3.0 | 7.0 | 0.00 | 0.12 | 0.12 | 76 | 1021.7 |
| 20260905211204 | 58 | 292 | 2.0 | 6.0 | 0.00 | 0.12 | 0.12 | 76 | 1021.7 |
| 20260905205704 | 58 | 286 | 2.0 | 3.0 | 0.00 | 0.12 | 0.12 | 75 | 1021.4 |
| 20260905205205 | 58 | 299 | 2.0 | 3.0 | 0.00 | 0.12 | 0.12 | 74 | 1021.3 |
| 20260905204205 | 59 | 280 | 2.0 | 6.0 | 0.00 | 0.12 | 0.12 | 74 | 1021.4 |
| 20260905202705 | 60 | 282 | 3.0 | 8.0 | 0.00 | 0.12 | 0.12 | 74 | 1021.1 |
| 20260905202204 | 60 | 285 | 5.0 | 8.0 | 0.00 | 0.12 | 0.12 | 74 | 1021.1 |
| 20260905201704 | 61 | 283 | 3.0 | 8.0 | 0.00 | 0.12 | 0.12 | 75 | 1021.1 |
| 20260905200705 | 60 | 284 | 2.0 | 7.0 | 0.00 | 0.12 | 0.12 | 79 | 1020.9 |
| 20260905200206 | 60 | 283 | 3.0 | 7.0 | 0.00 | 0.12 | 0.12 | 81 | 1020.9 |
| 20260905195703 | 59 | 288 | 2.0 | 7.0 | 0.00 | 0.12 | 0.12 | 83 | 1020.9 |
| 20260905194703 | 59 | 272 | 1.0 | 6.0 | 0.00 | 0.12 | 0.12 | 85 | 1020.8 |
| 20260905192203 | 61 | 286 | 1.0 | 8.0 | 0.00 | 0.12 | 0.12 | 79 | 1020.3 |
| 20260905191703 | 62 | 293 | 3.0 | 8.0 | 0.00 | 0.12 | 0.12 | 78 | 1020.2 |
| 20260905191203 | 62 | 293 | 3.0 | 8.0 | 0.00 | 0.12 | 0.12 | 77 | 1020.2 |
| 20260905190703 | 63 | 288 | 4.0 | 9.0 | 0.00 | 0.12 | 0.12 | 77 | 1020.2 |
| 20260905185703 | 63 | 288 | 5.0 | 12.0 | 0.00 | 0.12 | 0.12 | 76 | 1020.1 |
| 20260905185203 | 63 | 294 | 5.0 | 12.0 | 0.00 | 0.12 | 0.12 | 76 | 1019.9 |
| 20260905184703 | 63 | 286 | 3.0 | 14.0 | 0.00 | 0.12 | 0.12 | 76 | 1019.8 |
| 20260905182203 | 63 | 295 | 3.0 | 10.0 | 0.00 | 0.12 | 0.12 | 77 | 1019.3 |
| 20260905181703 | 63 | 276 | 2.0 | 10.0 | 0.00 | 0.12 | 0.12 | 76 | 1019.3 |
| 20260905181204 | 63 | 292 | 3.0 | 12.0 | 0.00 | 0.12 | 0.12 | 76 | 1019.3 |
| 20260905180204 | 63 | 267 | 3.0 | 8.0 | 0.00 | 0.12 | 0.12 | 76 | 1019.2 |
| 20260905175703 | 63 | 279 | 3.0 | 8.0 | 0.00 | 0.12 | 0.12 | 75 | 1019.1 |
| 20260905175204 | 63 | 279 | 3.0 | 9.0 | 0.00 | 0.12 | 0.12 | 76 | 1019.0 |
| 20260905174703 | 64 | 278 | 3.0 | 10.0 | 0.00 | 0.12 | 0.12 | 75 | 1019.0 |
| 20260905173203 | 64 | 289 | 3.0 | 12.0 | 0.00 | 0.12 | 0.12 | 74 | 1018.8 |
| 20260905172203 | 64 | 282 | 3.0 | 9.0 | 0.00 | 0.12 | 0.12 | 73 | 1018.6 |
| 20260905171704 | 65 | 282 | 4.0 | 9.0 | 0.00 | 0.12 | 0.12 | 73 | 1018.6 |
| 20260905170703 | 65 | 289 | 2.0 | 10.0 | 0.00 | 0.12 | 0.12 | 73 | 1018.5 |
| 20260905165704 | 65 | 287 | 3.0 | 10.0 | 0.00 | 0.12 | 0.12 | 72 | 1018.4 |
| 20260905165205 | 65 | 279 | 5.0 | 9.0 | 0.00 | 0.12 | 0.12 | 72 | 1018.4 |
| 20260905164704 | 65 | 286 | 4.0 | 10.0 | 0.00 | 0.12 | 0.12 | 71 | 1018.3 |
| 20260905163703 | 66 | 290 | 5.0 | 15.0 | 0.00 | 0.12 | 0.12 | 70 | 1018.3 |
| 20260905161703 | 67 | 311 | 2.0 | 15.0 | 0.00 | 0.12 | 0.12 | 68 | 1018.2 |
| 20260905161204 | 67 | 286 | 6.0 | 15.0 | 0.00 | 0.12 | 0.12 | 66 | 1018.1 |
| 20260905160704 | 67 | 291 | 5.0 | 14.0 | 0.00 | 0.12 | 0.12 | 67 | 1018.1 |
| 20260905153203 | 68 | 282 | 4.0 | 12.0 | 0.00 | 0.12 | 0.12 | 64 | 1017.9 |
| 20260905152705 | 68 | 286 | 5.0 | 13.0 | 0.00 | 0.12 | 0.12 | 65 | 1018.0 |
| 20260905152205 | 68 | 264 | 6.0 | 20.0 | 0.00 | 0.12 | 0.12 | 66 | 1018.1 |
| 20260905151203 | 68 | 291 | 7.0 | 20.0 | 0.00 | 0.12 | 0.12 | 64 | 1018.1 |
| 20260905145703 | 69 | 247 | 6.0 | 16.0 | 0.00 | 0.12 | 0.12 | 64 | 1017.9 |
| 20260905145204 | 69 | 285 | 6.0 | 15.0 | 0.00 | 0.12 | 0.12 | 63 | 1017.7 |
| 20260905144703 | 69 | 283 | 7.0 | 15.0 | 0.00 | 0.12 | 0.12 | 63 | 1017.7 |
| 20260905143704 | 69 | 243 | 9.0 | 20.0 | 0.00 | 0.12 | 0.12 | 64 | 1017.8 |
| 20260905143203 | 69 | 259 | 7.0 | 17.0 | 0.00 | 0.12 | 0.12 | 64 | 1017.8 |
| 20260905142703 | 69 | 278 | 7.0 | 20.0 | 0.00 | 0.12 | 0.12 | 64 | 1017.8 |
| 20260905141704 | 70 | 266 | 8.0 | 18.0 | 0.00 | 0.12 | 0.12 | 62 | 1018.0 |
| 20260905140203 | 70 | 288 | 9.0 | 16.0 | 0.00 | 0.12 | 0.12 | 64 | 1018.0 |
| 20260905135703 | 69 | 299 | 7.0 | 22.0 | 0.00 | 0.12 | 0.12 | 62 | 1018.0 |
| 20260905133704 | 70 | 300 | 7.0 | 18.0 | 0.00 | 0.12 | 0.12 | 63 | 1017.9 |
| 20260905133204 | 70 | 289 | 10.0 | 18.0 | 0.00 | 0.12 | 0.12 | 62 | 1017.9 |
| 20260905132203 | 70 | 284 | 9.0 | 20.0 | 0.00 | 0.12 | 0.12 | 63 | 1018.2 |
| 20260905131704 | 69 | 313 | 7.0 | 18.0 | 0.00 | 0.12 | 0.12 | 64 | 1018.0 |
| 20260905131203 | 70 | 299 | 6.0 | 20.0 | 0.00 | 0.12 | 0.12 | 65 | 1018.2 |
| 20260905130704 | 70 | 281 | 10.0 | 20.0 | 0.00 | 0.12 | 0.12 | 64 | 1018.1 |
| 20260905130204 | 71 | 276 | 8.0 | 20.0 | 0.00 | 0.12 | 0.12 | 65 | 1018.3 |
| 20260905124204 | 69 | 264 | 8.0 | 22.0 | 0.00 | 0.12 | 0.12 | 64 | 1018.2 |
| 20260905123704 | 70 | 281 | 7.0 | 22.0 | 0.00 | 0.12 | 0.12 | 65 | 1018.2 |
| 20260905123204 | 69 | 286 | 10.0 | 21.0 | 0.00 | 0.12 | 0.12 | 64 | 1018.2 |
| 20260905122203 | 69 | 277 | 7.0 | 22.0 | 0.00 | 0.12 | 0.12 | 62 | 1018.5 |
| 20260905121203 | 69 | 273 | 8.0 | 20.0 | 0.00 | 0.12 | 0.12 | 63 | 1018.4 |
| 20260905120703 | 68 | 288 | 10.0 | 20.0 | 0.00 | 0.12 | 0.12 | 62 | 1018.5 |
| 20260905120204 | 67 | 296 | 10.0 | 20.0 | 0.00 | 0.12 | 0.12 | 63 | 1018.5 |
| 20260905115203 | 68 | 296 | 5.0 | 20.0 | 0.00 | 0.12 | 0.12 | 67 | 1018.3 |
| 20260905114704 | 69 | 289 | 10.0 | 20.0 | 0.00 | 0.12 | 0.12 | 62 | 1018.3 |
| 20260905113703 | 68 | 272 | 8.0 | 17.0 | 0.00 | 0.12 | 0.12 | 67 | 1018.4 |
| 20260905111704 | 67 | 287 | 7.0 | 15.0 | 0.00 | 0.12 | 0.12 | 66 | 1018.4 |
| 20260905111203 | 67 | 274 | 9.0 | 15.0 | 0.00 | 0.12 | 0.12 | 66 | 1018.4 |
| 20260905105704 | 66 | 288 | 9.0 | 18.0 | 0.00 | 0.12 | 0.12 | 67 | 1018.3 |
| 20260905105203 | 67 | 292 | 9.0 | 16.0 | 0.00 | 0.12 | 0.12 | 66 | 1018.3 |
| 20260905104203 | 66 | 286 | 10.0 | 22.0 | 0.00 | 0.12 | 0.12 | 69 | 1018.2 |
| 20260905103204 | 67 | 246 | 7.0 | 13.0 | 0.00 | 0.12 | 0.12 | 72 | 1018.2 |
| 20260905102704 | 66 | 245 | 7.0 | 15.0 | 0.00 | 0.12 | 0.12 | 71 | 1018.2 |
| 20260905100204 | 65 | 282 | 6.0 | 15.0 | 0.00 | 0.12 | 0.12 | 75 | 1018.2 |
| 20260905095704 | 65 | 249 | 5.0 | 16.0 | 0.00 | 0.12 | 0.12 | 77 | 1018.2 |
| 20260905095205 | 64 | 276 | 5.0 | 16.0 | 0.00 | 0.12 | 0.12 | 77 | 1018.3 |
| 20260905094203 | 64 | 255 | 4.0 | 15.0 | 0.00 | 0.12 | 0.12 | 77 | 1018.3 |
| 20260905093203 | 63 | 247 | 7.0 | 14.0 | 0.00 | 0.12 | 0.12 | 79 | 1018.4 |
| 20260905092703 | 63 | 251 | 4.0 | 14.0 | 0.00 | 0.12 | 0.12 | 81 | 1018.4 |
| 20260905091703 | 61 | 241 | 6.0 | 16.0 | 0.00 | 0.12 | 0.12 | 82 | 1018.4 |
| 20260905090704 | 60 | 264 | 7.0 | 15.0 | 0.00 | 0.12 | 0.12 | 84 | 1018.4 |
| 20260905085704 | 60 | 236 | 6.0 | 15.0 | 0.00 | 0.12 | 0.12 | 85 | 1018.2 |
| 20260905085203 | 61 | 247 | 6.0 | 13.0 | 0.00 | 0.12 | 0.12 | 85 | 1018.1 |
| 20260905084704 | 60 | 233 | 6.0 | 12.0 | 0.00 | 0.12 | 0.12 | 88 | 1018.0 |
| 20260905083204 | 59 | 222 | 6.0 | 15.0 | 0.00 | 0.12 | 0.12 | 88 | 1017.8 |
| 20260905081704 | 59 | 241 | 6.0 | 13.0 | 0.00 | 0.12 | 0.12 | 91 | 1017.8 |
| 20260905081204 | 58 | 235 | 3.0 | 9.0 | 0.00 | 0.12 | 0.12 | 93 | 1017.8 |
| 20260905080204 | 57 | 231 | 3.0 | 9.0 | 0.00 | 0.12 | 0.12 | 95 | 1017.6 |
| 20260905075704 | 57 | 225 | 3.0 | 7.0 | 0.00 | 0.12 | 0.12 | 94 | 1017.6 |
| 20260905075204 | 56 | 218 | 2.0 | 6.0 | 0.00 | 0.12 | 0.12 | 95 | 1017.5 |
| 20260905074704 | 56 | 276 | 2.0 | 7.0 | 0.00 | 0.12 | 0.12 | 95 | 1017.6 |
| 20260905074204 | 56 | 295 | 1.0 | 8.0 | 0.00 | 0.12 | 0.12 | 95 | 1017.5 |
| 20260905073204 | 56 | 269 | 2.0 | 8.0 | 0.00 | 0.12 | 0.12 | 96 | 1017.3 |
| 20260905072703 | 56 | 252 | 2.0 | 10.0 | 0.00 | 0.12 | 0.12 | 96 | 1017.1 |
| 20260905072204 | 56 | 262 | 5.0 | 10.0 | 0.00 | 0.12 | 0.12 | 96 | 1017.0 |
| 20260905071204 | 56 | 268 | 2.0 | 10.0 | 0.00 | 0.12 | 0.12 | 97 | 1016.8 |
| 20260905070203 | 56 | 229 | 1.0 | 10.0 | 0.01 | 0.12 | 0.12 | 97 | 1016.8 |
| 20260905065704 | 56 | 301 | 2.0 | 10.0 | 0.01 | 0.12 | 0.12 | 97 | 1016.9 |
| 20260905065203 | 55 | 255 | 1.0 | 7.0 | 0.01 | 0.12 | 0.12 | 97 | 1016.8 |
| 20260905064703 | 55 | 267 | 3.0 | 7.0 | 0.02 | 0.12 | 0.12 | 97 | 1016.6 |
| 20260905063204 | 55 | 259 | 1.0 | 7.0 | 0.05 | 0.12 | 0.12 | 96 | 1016.7 |
| 20260905062703 | 55 | 206 | 1.0 | 8.0 | 0.06 | 0.12 | 0.12 | 97 | 1016.5 |
| 20260905062204 | 55 | 221 | 3.0 | 9.0 | 0.06 | 0.12 | 0.12 | 96 | 1016.4 |
| 20260905061704 | 55 | 215 | 3.0 | 9.0 | 0.07 | 0.12 | 0.12 | 96 | 1016.3 |
| 20260905061204 | 55 | 206 | 6.0 | 9.0 | 0.08 | 0.12 | 0.12 | 96 | 1016.1 |
| 20260905060704 | 55 | 204 | 5.0 | 9.0 | 0.09 | 0.12 | 0.12 | 96 | 1016.6 |
| 20260905060204 | 55 | 216 | 5.0 | 9.0 | 0.08 | 0.11 | 0.11 | 96 | 1016.9 |
| 20260905055704 | 55 | 195 | 2.0 | 8.0 | 0.09 | 0.11 | 0.11 | 96 | 1017.1 |
| 20260905055204 | 55 | 222 | 3.0 | 8.0 | 0.08 | 0.11 | 0.11 | 96 | 1017.3 |
| 20260905054704 | 55 | 222 | 1.0 | 5.0 | 0.07 | 0.10 | 0.10 | 96 | 1017.3 |
| 20260905053704 | 55 | 259 | 1.0 | 3.0 | 0.06 | 0.08 | 0.08 | 95 | 1017.3 |
| 20260905052204 | 55 | 283 | 3.0 | 6.0 | 0.04 | 0.06 | 0.06 | 94 | 1017.0 |
| 20260905051205 | 55 | 282 | 4.0 | 12.0 | 0.03 | 0.04 | 0.04 | 93 | 1017.0 |
| 20260905050704 | 56 | 292 | 5.0 | 12.0 | 0.02 | 0.04 | 0.04 | 93 | 1017.1 |
| 20260905045704 | 56 | 285 | 4.0 | 12.0 | 0.01 | 0.03 | 0.03 | 92 | 1016.9 |
| 20260905045204 | 56 | 299 | 3.0 | 12.0 | 0.01 | 0.03 | 0.03 | 92 | 1016.4 |
| 20260905044704 | 57 | 281 | 4.0 | 12.0 | 0.01 | 0.03 | 0.03 | 92 | 1016.4 |
| 20260905044204 | 57 | 300 | 5.0 | 10.0 | 0.01 | 0.02 | 0.02 | 92 | 1016.2 |
| 20260905043705 | 57 | 284 | 4.0 | 10.0 | 0.00 | 0.01 | 0.01 | 94 | 1016.1 |
| 20260905041203 | 57 | 276 | 1.0 | 3.0 | 0.01 | 0.01 | 0.01 | 94 | 1015.9 |
| 20260905040703 | 57 | 284 | 2.0 | 3.0 | 0.01 | 0.01 | 0.01 | 93 | 1015.9 |
| 20260905035703 | 57 | 294 | 0.0 | 3.0 | 0.01 | 0.01 | 0.01 | 93 | 1015.8 |
| 20260905032704 | 58 | 294 | 1.0 | 3.0 | 0.01 | 0.01 | 0.01 | 90 | 1015.3 |
| 20260905032203 | 58 | 275 | 2.0 | 3.0 | 0.01 | 0.01 | 0.01 | 90 | 1015.4 |
| 20260905031704 | 58 | 313 | 1.0 | 6.0 | 0.01 | 0.01 | 0.01 | 89 | 1015.4 |
| 20260905031204 | 59 | 290 | 1.0 | 12.0 | 0.01 | 0.01 | 0.01 | 87 | 1014.9 |
| 20260905030704 | 60 | 277 | 2.0 | 12.0 | 0.00 | 0.00 | 0.00 | 84 | 1015.1 |
| 20260905024704 | 60 | 299 | 1.0 | 3.0 | 0.00 | 0.00 | 0.00 | 82 | 1014.4 |
| 20260905024204 | 60 | 297 | 1.0 | 5.0 | 0.00 | 0.00 | 0.00 | 82 | 1014.4 |
| 20260905023703 | 60 | 30 | 2.0 | 5.0 | 0.00 | 0.00 | 0.00 | 81 | 1014.4 |
| 20260905022704 | 61 | 338 | 3.0 | 8.0 | 0.00 | 0.00 | 0.00 | 79 | 1014.8 |
| 20260905021704 | 61 | 295 | 5.0 | 10.0 | 0.00 | 0.00 | 0.00 | 78 | 1014.6 |
| 20260905020705 | 61 | 352 | 1.0 | 6.0 | 0.00 | 0.00 | 0.00 | 79 | 1013.7 |
| 20260905020204 | 61 | 0 | 2.0 | 8.0 | 0.00 | 0.00 | 0.00 | 79 | 1013.6 |
| 20260905015704 | 61 | 353 | 2.0 | 8.0 | 0.00 | 0.00 | 0.00 | 80 | 1013.5 |
| 20260905012704 | 61 | 312 | 1.0 | 7.0 | 0.00 | 0.00 | 0.00 | 81 | 1013.7 |
| 20260905011704 | 61 | 26 | 2.0 | 12.0 | 0.00 | 0.00 | 0.00 | 82 | 1013.4 |
| 20260905010704 | 61 | 5 | 3.0 | 15.0 | 0.00 | 0.00 | 0.00 | 83 | 1013.3 |
| 20260905005706 | 62 | 12 | 6.0 | 15.0 | 0.00 | 0.00 | 0.00 | 85 | 1013.3 |
| 20260905005204 | 62 | 16 | 7.0 | 16.0 | 0.00 | 0.00 | 0.00 | 85 | 1013.4 |
| 20260905004704 | 62 | 19 | 7.0 | 20.0 | 0.00 | 0.00 | 0.00 | 85 | 1013.3 |
| 20260905003705 | 63 | 29 | 10.0 | 25.0 | 0.00 | 0.00 | 0.00 | 84 | 1013.1 |
| 20260905002704 | 65 | 21 | 14.0 | 29.0 | 0.00 | 0.00 | 0.00 | 82 | 1012.9 |
| 20260905001703 | 63 | 280 | 1.0 | 2.0 | 0.00 | 0.00 | 0.00 | 85 | 1011.6 |
| 20260905001204 | 63 | 251 | 0.0 | 3.0 | 0.00 | 0.00 | 0.00 | 84 | 1011.5 |
| 20260905000204 | 63 | 252 | 0.0 | 3.0 | 0.00 | 0.00 | 0.00 | 84 | 1011.4 |
| 20260904235704 | 63 | 244 | 0.0 | 2.0 | 0.00 | 0.00 | 0.00 | 84 | 1011.4 |
| 20260904234706 | 63 | 275 | 1.0 | 3.0 | 0.00 | 0.00 | 0.00 | 84 | 1011.4 |
| 20260904233704 | 62 | 269 | 1.0 | 2.0 | 0.00 | 0.00 | 0.00 | 85 | 1011.3 |
| 20260904232704 | 62 | 270 | 0.0 | 2.0 | 0.00 | 0.00 | 0.00 | 87 | 1011.2 |
| 20260904232203 | 62 | 270 | 0.0 | 1.0 | 0.00 | 0.00 | 0.00 | 85 | 1011.2 |
| 20260904230705 | 64 | 270 | 0.0 | 2.0 | 0.00 | 0.00 | 0.00 | 84 | 1011.1 |
| 20260904230204 | 63 | 270 | 0.0 | 3.0 | 0.00 | 0.00 | 0.00 | 85 | 1011.0 |
| 20260904225704 | 63 | 270 | 1.0 | 3.0 | 0.00 | 0.00 | 0.00 | 86 | 1011.0 |
| 20260904225204 | 62 | 217 | 0.0 | 2.0 | 0.00 | 0.00 | 0.00 | 87 | 1011.0 |
| 20260904224704 | 62 | 217 | 0.0 | 0.0 | 0.00 | 0.00 | 0.00 | 88 | 1010.9 |
| 20260904224204 | 62 | 217 | 0.0 | 0.0 | 0.00 | 0.00 | 0.00 | 88 | 1011.0 |
| 20260904223704 | 62 | 217 | 0.0 | 0.0 | 0.00 | 0.00 | 0.00 | 88 | 1011.0 |
| 20260904221704 | 62 | 217 | 0.0 | 0.0 | 0.00 | 0.00 | 0.00 | 87 | 1010.9 |
| 20260904220707 | 62 | 217 | 0.0 | 0.0 | 0.00 | 0.00 | 0.00 | 87 | 1010.9 |